loading
|

THOR ABLESTAR DEB, 1522

Orbit data source: Space-Track

THOR ABLESTAR DEB, 1522 is space debris in LEO originally from a launch on Fri, 13 Aug 1965 UTC launched from the Air Force Western Test Range (AFWTR). Debris objects in space refer to the collection of defunct objects orbiting the Earth. Examples of debris include non-operational satellites, rocket bodies, and fragments generated from explosions, collisions, or faulty payload assembly.

Loading next visibility...
Loading greatness...
THOR ABLESTAR DEB details
Identifier
1522, 1965-065L
Orbit
LEO
Last TLE update7 hours ago
Origin
Flag of USUSN BuWeps (US)
ManufacturerUnknown
Mission statusUnknown
MissionUnknown
Bus & MotorUnknown
MassUnknown
Launch date (UTC)
1965-08-13 (59 years ago)
Launch vehicleUnknown
Launch site
Air Force Western Test Range (AFWTR)
Object type
Payload
Rocket body
Debris
Radar Cross SectionMedium (>0.1 m² and <1 m²)

Expand to show TLE details & history

TLE from 7 hours ago
0 THOR ABLESTAR DEB
1 01522U 65065L   24261.60759150  .00000147  00000-0  27745-3 0  9990
2 01522  90.1057 121.0367 0069531 238.1564 174.9860 13.33773560874807
Epoch: 2024-09-17T14:34Z
Definitive object data (Epoch: 2024-09-17T14:34:55.905Z)
Latitude53.30388°
Longitude-94.85717°
Altitude1,193.381 km
Speed7.237 km/s
True Right ascension08h 03m 34s
True Declination53° 08' 54"
Sunlit
Object was in daylight at TLE epoch
Predictive object data (real-time)
Latitude31.25042°
Longitude-94.77681°
Altitude1,183.396 km
Speed7.242 km/s
Apparent Right ascension05h 44m 43s
Apparent Declination-1° 07' 23"
Sunlit
Object is in daylight
Predictive observer data (real-time)
Local Sidereal Time14:29:07
Azimuth298.359° NW
Elevation-31.109°
Doppler factor1
Orbital elements
Apogee1,181.839 km
Perigee1,077.434 km
Semi-major axis7,507.774 km
Eccentricity0.0069531
Inclination90.1057°
RAAN121.0367°
Arg. of periapsis238.1564°
True anomaly175.05504°
Mean anomaly174.986°
Eccentric anomaly175.02058°
Mean motion3.33639 °/min
BSTAR0.00027745
Period107.9 mins
No data available

THOR ABLESTAR DEB Visibility forecast

Observer location: 39.9160978°, -105.1181434

THOR ABLESTAR DEB is not visible in the next 10 days
Span
Click to sort rows by Start time (UTC) header in descending order
Start Az.
Max El. time (UTC)
Max El. Az.
Max El.
End time (UTC)
End Az.